[Date Prev][Date Next][Thread Prev][Thread Next][Date Index][Thread Index]

[jamsat-news:1407] jas2info #208



========================   最新情報   ==============================

        Last updated :Fri29DEC.2000  13:30 (JST) #208
====================================================================
   
  1)二十世紀最後の観測でアマチュア通信衛星情報、FOシリーズの軌道要素、
  テレメトリ、QSOの状況等をまとめてみました.
   
   FO−29の12月29日(金)の11:09(JST)のパスでは
  JARLホームページのとうりアナログ運用でした。
  今まで観測したテレメトリーと分析結果を掲載しておきます.

 AS21564C1     29DEC2000
 11:09-11:21(JST)
 FREQ.435.804-789MHz
                                  42 57 94 64 5F 91 8F B0 88 AF AA AD AE AD 
 HI HI AE 07 88 55 00 D4 50 19 09 42 57 95 5E 60 92 91 B0 81 AF AA AD AE AD 
 HI HI AE C7 88 55 00 D4 50 19 09 42 57 97 61 55 91 8F B0 8A AE AA AD AE AD 
 HI HI AE C7 88 55 00 D4 50 19 09 42 57 99 61 50 91 8F B0 87 AF AA AC AE AD 
 HI HI AE C7 88 55 00 D4 50 19 09 42 57 9D 61 60 91 8F B0 81 AF AA AC AE AD 
 HI HI AE C7 88 55 00 D4 50 19 09 42 57 9F 62 60 91 8F B0 76 AE AA AC AE AD 
 HI HI AE C7 88 55 00 D4 50 19 09 42 6O A0 62 60 92 8F B0 86 AE AA AC AE AD
 HI HI AE C7 88 55 00 D4 50 19 09 42 6D A5 6E 5F 92 8F B0 88 AE A9 AC AE AD 
 HI HI AE C7 88 55 00 D4 50 19 09 42 60 A8 6F 5F 92 8F B0 66 AE A9 AC AE AD 
 HI HI AE C7 88 55 00 D4 50 19 09 42 63 AB 7A 5F 92 8F B0 6D AE A9 AC AD AD 
 HI HI AE C7 88 55 00 D4 50 19 09 42 66 AE 74 5F 92 8F B0 59 AE A9 AC AD AD 
 HI HI AE C7 88 55 00 D4 50 19 09 42 69 B0 77 5F 91 90 B0 8B AE A9 AC AD AD 
 HI HI AE C7 88 55 00 D4 50 19 09 42 6D B3 77 60 92 8F B0 6F AE A9 AC AD AD 
 HI HI AE C7 88 55 00 D4 50 19 09 42 71 B5 7F 60 92 90 B0 73 AE A9 AC AD AD 
 HI HI AE C7 88 55 00 D4 50 19 09 42 75 B6 7A 60 92 90 B0 71 AE A9 AB AD AD 
 HI HI AE C7 88 55 00 D4 50 19 09 42 79 B7 7E 60 92 90 B0 62 AE A9 AB AD AD 
 HI HI AE C7 88 55 00 D4 50 19 09 42 7D B8 7F 60 92 90 B0 81 AE A9 AB AC AD 
 HI HI AE C7 88 55 00 D4 50 19 09 42 80 B9 7F 60 92 90 B0 75 AE A9 AB AC AD  

 AS21510C1   25Dec2000
 11:25-11:29(JST)
 FREQ.  - 435.789MHz

 HI HI AE C7 88 55 00 D4 00 00 09 00 58 32 7C 5F 92 90 B0 66 AE A8 AE B1 AF 
 HI HI AE C7 88 55 00 D4 00 00 09 00 6E 29 7F 60 92 90 B0 6B AE A8 AE B1 AF 
 HI HI AE C7 88 55 00 D4 00 00 09 00 86 2F 7E 60 92 90 B0 72 AE A7 AE B1 AF 
 HI HI AE C7 88 55 00 D4 00 00 09 00 98 42 7C 60 92 90 B0 57 AE A7 AE B1 AF 

 AS21469C1   22Dec2000
 10:31-10:45(JST)
 FREQ.      -435.787MHz
                                              60 93 90 B0 8A AF A9 AC AF AD 
 HI HI AE C7 88 55 00 D4 08 55 09 38 59       60 93 90 B0 92 AF A9 AC AF AD 
 HI HI AE C7 88 55 00 D4 08 55 09 38 59 69 73 5F 94 91 B0 77 AE A9 AC AF AD 
 HI HI AE C7 88 55 00 D4 08 55 09 38 56 78 6A 60 93 8F B0 6C AE A9 AC AF AD 
 HI HI AE C7 88 55 00 D4 08 55 09 38 59 8A 6B 60 93 91 B0 96 AE A8 AC AF AD 
 HI HI AE C7 88 55 00 D4 08 55 09 38 5F 95 5D 5F 91 8F B0 88 AE A8 AC AF AD 
 HI HI AE C7 88 55 00 D4 08 55 09 38 69 A0 5C 5F 92 91 B0 7C AE A8 AC AF AD 
 HI HI AE C7 88 55 00 D4 08 55 09 38 73 A3 5B 60 92 90 B0 76 AE A8 AC AF AD 
 HI HI AE C7 88 55 00 D4 08 55 09 38 80 A2 60 5F 91 8F B0 7B AE A8 AB AF AD 
 HI HI AE C7 88 55 00 D4 08 55 09 38 90 9E 67 5F 94 91 B0 77 AE A7 AB AF AD 
 HI HI AE C7 88 55 00 D4 08 55 09 38 94 93 66 60 92 8F B0 7A AD A7 AB AF AD 
 HI HI AE C7 88 55 00 D4 08 55 09 38 98 7A 65 60 91 8F B0 86 AD A8 AB AE AD 
 HI HI AE C7 88 55 00 D4 08 55 09 38 98 7B 6B 5F 91 8F B0 90 AD A7 AB AE AD 
 HI HI AE C7 88 55 00 D4 08 55 09 38 92 71 71 5F 91 8F B0 64 AD A7 AB AE AD 
 HI HI AE C7 88 55 00 D4 08 55 09 38 87 6B 7A 5F 91 8F B0 76 AD A7 AB AE AD 
 HI HI AE C7 88 55 00 D4 08 55 09 38 78 69 7F 5F 92 8F B0 74 AD A7 AB AE AC 
 HI HI AE C7 88 55 00 D4 08 55 09 38 67 6C 81 5F 91 8F B0 81 AD A7 AA AE AC 
 HI HI AE C7 88 55 00 D4 08 55 09 38 56 75 80 5F 91 8F B0 7E AD A7 AA AE AC 
 HI HI AE C7 88 55 00 D4 08 55 09 38 48 82 7D 5F 91 8F B0 84 AC A7 AA AE AC 
  
 ------------------------ FO-29の軌道要素 ------------------------------        
 
  ■ 軌道要素1:「jamsat−keps:1058」より         
          SB KEPS @ AMSAT  $ORB00356.N
          2Line Orbital Elements 00356.AMSAT
 HR AMSAT ORBITAL ELEMENTS FOR AMATEUR SATELLITES IN NASA FORMAT
 FROM WA5QGD FORT WORTH,TX December 21, 2000
 SEND SUBSCRIBE/UNSUBSCRIBE TO majordomo@amsat.org ONLY
 BID: ORB00356.N

 DECODE 2-LINE ELSETS WITH THE FOLLOWING KEY:
 1 AAAAAU 00  0  0 BBBBB.BBBBBBBB  .CCCCCCCC  00000-0  00000-0 0  DDDZ
 2 AAAAA EEE.EEEE FFF.FFFF GGGGGGG HHH.HHHH III.IIII JJ.JJJJJJJJKKKKKZ
 KEY: A-CATALOGNUM B-EPOCHTIME C-DECAY D-ELSETNUM E-INCLINATION F-RAAN
 G-ECCENTRICITY H-ARGPERIGEE I-MNANOM J-MNMOTION K-ORBITNUM Z-CHECKSUM

  FO-29
  1 24278U 96046B   00355.73011057  .00000014  00000-0  47831-4 0 04217
  2 24278 098.5692 238.9168 0352030 104.1176 259.9342 13.52751936214513

 ■ 軌道要素2:「jamsat−keps:1059」より                    
         SB KEPS @ AMSAT  $ORB00356.O
         Orbital Elements  00356.OSCAR
 HR AMSAT ORBITAL ELEMENTS FOR OSCAR SATELLITES
 FROM WA5QGD FORT WORTH,TX December 21, 2000
 SEND SUBSCRIBE/UNSUBSCRIBE TO majordomo@amsat.org ONLY
 BID: ORB00356.O
 TO ALL RADIO AMATEURS BT

  Satellite: FO-29
 Catalog number: 24278
 Epoch time:      00355.73011057
 Element set:    0421
 Inclination:      098.5692 deg
 RA of node:       238.9168 deg
 Eccentricity:    0.0352030
 Arg of perigee:   104.1176 deg
 Mean anomaly:     259.9342 deg
 Mean motion:   13.52751936 rev/day
 Decay rate:        1.4e-07 rev/day^2
 Epoch rev:           21451
 Checksum:              292
-------------------  FO-29(JAS-2)のテレメトリに関する情報  ---------------------- 
 
2)上記テレメトリー12月29日のテレメトリ最終行を分析しておきます.
 
  AS21564C1     29DEC2000
  11:09-11:21(JST)
  FREQ.435.804-789MHz
 
 HI HI AE C7 88 55 00 D4 50 19 09 42 80 B9 7F 60 92 90 B0 75 AE A9 AB AC AD
    
                       テレメトリ 内 容           換算算値 単 位  

                      3C	磁気センサーZ軸	=	62745.1[nT]	
               3D	磁気センサX軸	=	90686.3[nT]	
               4A	太陽電池発生電流	=	 1245.1[mA]	
               4B	B充放電電流  	=	 -118.4[mA]	
               4C	B端子電圧   	=	  15.7[V]	
               4D	B中間端子電圧	= 	   6.9	[V]	
               5A	バス電圧    	=	  17.3	[V]	
               5B	JTA送信電力	=	 675.4	[mW]	
               5C 	構体温度1    =	  14.3	[℃]	
               5D	構体温度2   	=       16.2	[℃]	
               6A	構体温度3  	=      15.5	[℃]	
               6B	構体温度4   	=	   15.1	[℃]	
               6C	Bセル温度   	=      14.7	[℃]	
	
 ===========================  FO-29(ふじ3号)のQSO情報等 ======================
   
 3)[jamsat-bb:

 ===============================================================================
   4)JARL のホームページに運用予定が記載されていましたのでご紹介します.
       ( http://www.jarl.or.jp/Japanese/3_Fuji/new/uy.htm )

        ■ ふじ3号/FOー29/JAS-2 ■  
   
     *** 運用予定について ***
    
    12月25日〜平成13年1月31日 アナログ系運用 

  *なお,運用予定は都合により変更することがありますので予めご了承願います。

 照会先 : lab@jarl.or.jp

 最新の情報はテレホンサービス(03−3942−1000)をお聞きください。  
 以後の運用につきましては平成13年1月上旬にお知らせ致します。
 
-----------------------    FO−20(JAS-1b)道要素   -------------------------
  5)
  ■ 軌道要素1 :出典はFO-29「ふじ3号」に同じ.
  
  FO-20
 1 20480U 90013C   00355.86959518  .00000005  00000-0  87952-4 0  2770
 2 20480  99.0749  91.5094 0541213 352.8465   6.5126 12.83284554509221
 
  ■ 軌道要素2 :出典はFO−29「ふじ3号」に同じ.
               
  Satellite: FO-20
 Catalog number: 20480
 Epoch time:      00355.86959518
 Element set:     277
 Inclination:       99.0749 deg
 RA of node:        91.5094 deg
 Eccentricity:    0.0541213
 Arg of perigee:   352.8465 deg
 Mean anomaly:       6.5126 deg
 Mean motion:   12.83284554 rev/day
 Decay rate:        5.0e-08 rev/day^2
 Epoch rev:           50922
 Checksum:              308
 --------------------------------------------------------------------------------
 
         ■ ふじ2号/FO−20/JAS-1b ■      
            
          「ふじ2号」 現況                                                                                  
             
   JAS-1b(ふじ2号)のCWテレメトリ信号に,1997年10月12日12時(JST)の
 日本上空通過時,3桁の数字が繰り返されるはずが3個の長音の繰り返しとなっているという
 異常が発見されました。この不具合は次の通過時からは回復していましたが13日15時20分の
 通過時に再び観測されました。現在はA0の送信が続いています。衛星のアナログ系中継モード
 動作は異常が無く,正常時のテレメトリ内容からは衛星の動作に異常は認められません。従って,
 直ちに衛星のミッションに影響することは無いと予想されますので,当面はアナログ系中継
 モードを継続します。衛星は既に打ち上げてから7年8ヶ月を経ておりますので,今後は監視を
 強化する予定です。アマチュア各位のレポートをお待ちします。
 -------------------------------------------------------------------------------- 
  1997年10月14日 00時35分 確認のテレメトリ音 151 KB (A0) 
  1997年10月14日 11時10分 確認のテレメトリ音 216 KB (異常キーイング) 

  以上 JARLのホ−ムページの http://www.jarl.or.jp/Japanese/3_Fuji/new/fuji.htm

===================== FO-20 ふじ2号 のテレメトリ観測結果 ====================

   12月22日(金)の12:21(JST)のパスの観測結果では以前観測した
 単一周波数のドップラー効果で周波数がずれていくのみの状態に戻っておりました。
                                         
   =============   JAS-2 (ふじ3号)と現在までの情報   ===========
  
  A.電話によるふじ3号の運用情報
      社団法人日本アマチュア連盟によるサービス
           TEL .   03− 3942 − 1000
  B.アマチュア無線FAXサービス
      JARLによるふじ3号の軌道情報(オービットカレンダー)
         FAX No.  03− 3233 −0055
  C.WWWブラウザで情報を簡単に見れる人のためにJAS−2
     ふじ3号の衛星としての運用されるまでの名前)の概要、打ち上げ
     までの状況、運用中における状況を説明したホームページを紹介し
     ておきます.
     社団法人日本アマチュア無線連盟(JARL)のホームページ

          http://www.jarl.or.jp/Japanese/3_Fuji/jasmenu.htm
 
     宇宙開発事業団(NASDA)ホームページ 
          http://www.nasda.go.jp/
         打上げ衛星 :地球観測プラットフォーム技術衛星(ADEOS) 
                       アマチュア衛星3号(JAS-2)
          http://yyy.tksc.nasda.go.jp/Home/Press/Press-j/jas-2_j.html        

  D.JAMSATによる軌道情報の活用
        JAMSATのホームページまたはjamsat−kepsの軌道要素より
      衛星の軌道情報を得る.
     JAMSATホームページ
               URL    http://www.jamsat.or.jp
       上記ホームページでは各地で行われるアマチュア通信衛星に関する
      ミューティングのお知らせや世界のアマチュア衛星に関する情報が
      満載されています.
 ========================================================================  
     JAMSATのメンバーのご協力によりJH6MME(高山 秀造)が
    執筆・編集を担当しております.ご指摘の意見、疑問やこのようにしたら
    というアイデアがありましたら小さなことでもかまいませんので気軽に下
    記アドレスまでご連絡ください.jamsat−newsからjas2
    infoへの転載をJH4PHW局坂井さんに担当して頂いております.  
                  E-mail : jh6mme@jamsat.or.jp : jh4phw@jamsat.or.jp
 ===============================   END  ===============================